SCP
1 1 1 1 1 2 2 3 4 4 5 5 4 3 2 1 1 0 0 0 0 0 0 0 0 0 0 0 0 0 0 0 0 0 0 0 0 0 0 0 0 0 0
1 1 1 1 1 2 2 3 4 5 5 5 5 5 3 2 1 1 0 0 0 0 0 0 0 0 0 0 0 0 0 0 0 0 0 0 0 0 0 0 0 0 0
1 1 1 1 1 2 2 3 4 6 6 6 6 6 4 2 1 1 1 0 0 0 0 0 0 0 0 0 0 0 0 0 0 0 0 0 0 0 0 0 0 0 0
2 1 1 1 1 2 3 3 5 6 7 6 6 6 4 3 2 1 1 0 0 0 0 0 0 0 0 0 0 0 0 0 0 0 0 0 0 0 0 0 0 0 0
1 1 1 1 1 2 3 4 5 7 8 8 7 5 4 3 2 2 1 1 0 0 0 0 0 0 0 0 0 0 0 0 0 0 0 0 0 0 0 0 0 0 0
1 1 1 1 1 1 2 4 5 8 9 9 8 6 5 4 3 2 1 1 0 0 0 0 0 0 0 0 0 0 0 0 0 0 0 0 0 0 0 0 0 0 0
0 0 1 1 1 1 2 3 5 7 10 10 9 7 6 4 3 2 2 1 1 1 0 0 0 0 0 0 0 0 0 0 0 0 0 0 0 0 0 0 0 0 0
0 0 0 0 0 1 1 3 4 5 8 10 10 8 6 5 3 2 2 2 1 1 1 0 0 0 0 0 0 0 0 0 0 0 0 0 0 0 0 0 0 0 0
0 0 0 0 0 0 1 2 3 4 6 9 10 9 7 5 3 3 2 2 2 1 1 1 0 0 0 0 0 0 0 0 0 0 0 0 0 0 0 0 0 0 0
0 0 0 0 0 0 0 1 2 3 5 8 10 10 7 5 4 3 3 2 2 1 1 1 1 0 0 0 0 0 0 0 1 1 1 1 1 0 0 0 0 0 0
0 0 0 0 0 0 0 1 2 2 3 6 9 10 8 6 5 4 3 3 2 2 1 1 1 1 0 0 0 0 0 0 1 1 1 1 1 1 1 0 0 0 0
0 0 0 0 0 0 0 0 1 2 2 4 6 9 8 6 5 3 3 2 2 2 2 1 1 1 1 0 0 0 0 0 1 1 1 1 1 1 1 1 0 0 0
0 0 0 1 1 0 0 0 1 1 2 2 4 6 7 6 5 4 3 2 2 2 2 2 2 1 1 0 0 0 0 0 1 1 1 1 1 1 1 1 1 0 0
0 1 1 1 1 1 0 0 1 1 2 2 2 3 4 5 5 4 3 2 2 2 2 2 2 2 1 0 0 0 0 0 0 1 1 1 1 1 1 1 1 0 0
0 1 1 1 1 0 0 0 0 1 1 1 1 1 2 4 4 4 3 2 2 2 2 2 2 2 1 1 0 0 0 0 0 0 0 1 1 1 1 1 0 0 0
0 0 1 1 1 0 0 0 0 0 1 1 1 0 1 2 2 3 3 2 2 2 2 3 2 2 1 1 0 0 0 0 0 0 0 0 0 0 0 0 0 0 0
0 0 0 0 0 0 0 0 0 0 0 0 0 0 0 1 1 2 2 2 2 2 2 2 2 2 1 0 0 0 0 0 0 0 0 0 0 0 0 0 0 0 0
0 0 0 0 0 0 0 0 0 0 0 0 0 0 0 0 1 1 2 2 2 2 2 2 2 2 1 0 0 0 0 0 0 0 0 0 0 0 0 0 0 0 0
0 0 0 0 0 0 0 0 0 0 0 0 0 0 0 0 1 1 1 1 2 2 2 2 2 2 1 0 0 0 0 0 0 0 0 0 0 0 0 0 0 0 0
0 0 0 0 0 0 0 0 0 0 0 0 1 1 1 1 1 1 1 1 1 2 2 2 2 2 1 0 0 0 0 0 0 0 0 0 0 0 0 0 0 0 0
0 0 0 0 0 0 0 0 0 0 0 1 1 1 1 1 1 1 1 1 1 1 1 1 1 1 1 0 0 0 0 0 0 0 0 0 0 0 0 0 0 0 0
0 0 0 0 0 0 0 0 0 1 1 2 2 2 1 1 1 1 0 0 0 1 1 1 1 1 1 0 0 0 0 0 0 0 0 0 0 0 0 0 0 0 0
0 0 0 0 0 0 0 0 1 1 2 2 2 2 1 1 1 1 0 0 0 0 1 1 1 1 1 0 0 0 0 0 0 0 0 0 0 0 0 0 0 0 0
0 0 0 0 0 0 0 0 1 2 2 2 1 1 1 0 0 0 0 0 0 0 0 1 1 1 0 0 0 0 0 0 0 0 0 0 0 0 0 0 0 0 0
0 0 0 0 0 0 0 0 0 1 1 1 0 0 0 0 0 0 0 0 0 0 0 1 1 0 0 0 0 0 0 0 0 0 0 0 0 0 0 0 0 0 0
0 0 0 0 0 0 0 0 0 0 0 0 0 0 0 0 0 0 0 0 0 0 0 0 1 0 0 0 0 0 0 0 0 0 0 0 0 0 0 0 0 0 0
Wind_Speed
5 5 6 6 6 5 5 5 4 3 3 3 2 2 1 1 1 1 2 3 3 3 3 3 2 2 2 2 2 2 2 2 2 3 3 3 3 2 1 1 1 1 1
4 5 6 6 6 6 6 5 5 4 4 3 3 3 2 1 1 1 1 2 3 3 3 3 2 2 2 2 2 2 1 1 1 2 2 2 3 3 2 1 1 0 1
9 7 7 6 7 6 7 6 5 5 4 4 3 2 3 2 2 1 1 1 2 3 3 3 3 2 2 2 1 2 2 1 1 1 3 2 1 2 3 2 1 1 0
7 7 7 6 7 7 6 6 6 5 4 5 5 5 3 2 2 2 1 1 2 2 3 3 3 3 2 2 1 2 2 2 1 1 0 1 3 2 1 3 2 1 0
8 8 8 8 7 6 5 5 5 5 4 4 5 5 3 2 2 1 1 1 1 1 2 3 3 2 2 2 2 2 2 2 2 1 0 1 1 1 2 1 2 2 2
7 7 6 6 5 4 4 4 5 5 4 5 5 5 5 4 3 2 2 1 0 1 1 2 2 2 2 2 2 2 2 2 2 1 1 2 1 1 2 1 1 1 2
6 7 7 6 5 5 5 4 5 5 5 5 5 5 6 6 5 4 3 2 1 1 2 2 2 2 2 2 2 2 2 2 2 2 1 1 2 2 2 2 1 1 2
5 7 7 7 6 6 6 6 5 4 5 5 5 4 4 4 3 3 3 3 2 2 2 2 2 2 3 3 2 2 2 2 2 2 2 1 1 2 2 3 3 1 1
5 6 6 6 5 5 5 5 5 4 5 5 5 4 3 3 3 3 3 2 2 2 2 2 2 2 2 3 3 2 3 2 2 2 2 2 2 2 2 2 3 4 2
3 4 4 5 5 5 4 4 5 5 4 5 4 4 3 4 4 3 3 3 2 2 2 2 2 2 2 2 2 2 2 3 2 2 2 2 2 1 2 2 2 2 4
3 3 3 4 4 3 3 4 3 3 3 4 4 4 3 3 3 3 3 3 3 3 3 3 3 2 2 2 2 2 3 3 3 3 3 3 2 2 2 2 2 2 3
3 3 4 3 3 3 3 4 4 3 3 4 4 4 3 3 3 3 3 3 3 3 3 3 3 3 2 2 3 3 3 4 4 4 3 3 2 2 2 2 2 2 3
2 2 3 3 3 3 3 3 3 4 3 3 3 3 3 3 3 4 3 3 3 2 2 3 3 4 3 3 4 4 3 4 4 4 5 4 3 3 2 3 3 2 2
2 2 2 3 3 3 3 4 3 3 3 3 3 3 4 4 4 3 3 3 3 3 3 3 3 4 4 4 3 3 3 3 3 4 5 5 5 5 4 4 4 3 2
1 0 1 2 2 2 3 3 3 3 3 3 3 3 3 3 3 3 3 3 3 3 4 3 2 2 2 3 3 3 3 3 3 3 3 4 5 7 5 4 4 4 3
0 1 0 0 1 2 3 3 3 4 4 4 4 3 2 2 3 3 2 2 3 3 3 3 3 3 2 3 4 3 3 3 3 3 3 3 3 5 7 6 6 7 6
1 1 1 2 2 3 3 4 4 4 4 5 4 3 3 2 2 2 2 2 2 2 3 3 3 4 4 4 4 4 3 3 3 4 3 2 2 2 2 4 5 6 7
2 2 2 2 3 3 2 2 3 3 4 4 4 4 4 3 3 2 3 3 2 3 3 3 3 3 4 5 4 4 3 3 3 3 3 3 2 2 2 2 3 3 4
2 2 2 2 2 2 2 1 2 3 4 4 5 4 4 4 3 3 3 3 3 3 3 3 3 3 4 5 5 3 2 2 2 3 3 3 3 4 4 3 2 2 2
2 2 2 1 1 2 1 1 1 2 4 5 5 5 4 4 4 4 3 2 3 3 3 3 3 3 3 4 4 3 2 2 2 2 2 3 3 3 4 4 3 3 2
2 2 2 2 2 2 0 1 1 3 4 4 4 4 4 5 5 4 3 2 3 2 3 3 2 3 3 4 4 3 2 3 2 2 2 2 3 4 5 4 4 4 2
3 2 2 2 2 2 0 1 2 3 2 1 2 3 3 3 3 3 2 2 2 2 2 2 2 2 2 3 4 4 3 2 2 3 3 3 3 4 4 4 3 3 3
2 2 2 3 3 3 1 1 3 2 1 0 2 3 2 2 2 3 3 2 2 2 2 2 2 2 2 2 4 4 4 4 2 2 3 2 3 3 3 3 3 3 2
3 3 2 2 3 4 3 2 2 1 0 1 2 2 1 1 1 1 2 2 2 3 3 3 3 2 2 2 2 2 2 2 1 1 1 1 1 2 1 1 1 1 2
2 2 2 2 3 3 3 3 2 1 0 1 1 1 1 2 1 1 1 2 3 4 4 4 3 3 3 4 4 3 3 3 2 1 1 1 1 1 1 1 1 1 1
2 2 2 2 3 3 3 3 2 0 0 1 1 1 1 1 2 1 1 2 2 3 4 5 4 3 4 4 4 4 4 4 5 3 2 1 2 2 2 2 1 2 2
Wind_Direction
195 160 154 148 144 144 139 139 138 138 128 120 125 120 121 123 95 105 116 120 113 113 113 110 104 101 104 106 94 91 67 49 62 68 28 4 13 30 37 64 90 77 80
175 161 152 151 152 154 150 148 152 152 152 157 158 154 152 146 138 124 91 112 121 124 125 122 122 118 107 88 84 92 89 39 57 106 86 16 355 357 9 25 95 108 84
184 174 164 164 159 160 165 163 168 165 161 148 125 101 72 53 52 61 89 127 136 131 130 135 130 126 124 132 132 118 119 122 357 96 131 134 220 310 337 353 16 21 86
180 172 166 168 173 177 174 166 166 163 157 144 140 143 147 162 193 185 174 154 143 138 138 144 141 141 141 146 156 122 124 128 137 339 51 149 157 149 313 332 341 343 341
181 176 175 176 176 174 173 168 160 162 156 150 150 146 145 170 167 144 135 143 143 151 148 148 149 152 154 162 156 133 126 130 150 168 146 75 68 115 142 271 317 339 324
181 177 172 165 169 164 155 162 159 164 161 157 154 155 159 159 144 149 161 171 173 191 190 162 163 168 167 177 177 163 157 155 144 152 149 146 149 175 152 188 252 282 302
178 175 170 167 169 165 165 161 164 169 167 164 167 169 171 166 167 174 178 171 176 210 227 192 189 185 185 184 174 171 182 180 170 183 198 190 195 175 160 157 197 250 296
183 181 182 179 177 176 171 169 166 174 170 170 179 178 173 167 174 179 174 181 197 210 207 194 198 201 192 189 179 183 203 192 196 204 199 203 218 185 171 166 156 145 324
188 185 179 176 176 176 178 173 171 173 177 174 171 169 172 168 174 178 173 183 205 207 187 184 193 207 198 193 183 197 213 204 210 213 209 209 221 197 192 173 164 158 181
176 179 176 177 179 178 176 168 168 171 175 173 174 171 182 183 179 166 169 181 197 198 185 190 193 197 198 195 187 206 214 199 217 217 215 225 227 210 195 181 174 166 165
179 179 181 180 172 162 161 164 169 168 170 180 177 171 185 187 176 180 195 196 195 193 195 200 200 201 208 209 197 211 208 207 219 225 217 230 223 213 212 186 171 172 156
176 174 166 160 157 161 164 170 175 179 193 191 180 181 183 175 182 200 207 198 197 202 200 195 196 203 207 210 204 217 218 214 218 222 220 234 221 217 206 188 187 182 175
145 141 150 164 175 176 178 183 185 188 193 179 174 180 185 184 198 208 208 201 200 206 207 198 203 208 208 210 213 217 222 221 223 218 214 220 201 213 206 193 191 184 172
156 149 168 183 188 183 180 184 196 191 182 173 168 181 196 198 203 204 201 201 197 195 202 208 215 215 211 208 209 216 226 234 239 231 219 213 203 206 202 198 194 180 167
59 118 177 186 195 195 193 190 197 194 184 177 180 201 209 203 197 200 206 207 203 203 199 198 214 215 210 207 195 202 216 224 241 249 237 225 217 213 203 199 192 181 177
0 4 43 181 206 214 214 208 208 204 185 190 204 207 195 190 196 202 203 205 213 214 199 198 199 206 224 225 200 190 210 214 219 233 247 250 231 230 216 207 195 185 183
311 279 236 231 243 243 227 216 213 200 190 196 204 202 193 194 210 212 204 210 218 217 211 211 202 213 226 222 212 202 201 211 218 222 227 249 248 236 223 220 210 210 205
315 297 272 264 265 254 247 238 212 200 197 199 209 209 198 199 202 197 209 216 210 210 215 221 213 218 238 233 224 214 198 211 223 221 214 220 244 234 206 211 211 222 217
282 272 259 260 267 263 249 241 230 213 205 209 215 214 203 199 199 205 216 214 207 214 218 219 219 223 247 242 231 207 198 212 232 236 228 214 218 236 200 178 191 224 256
319 306 302 325 323 288 239 195 238 219 219 221 218 211 202 200 208 210 211 216 209 214 212 224 227 225 237 240 228 204 185 203 226 238 239 230 218 213 182 175 180 205 237
339 360 19 360 316 302 275 216 233 236 239 236 226 218 211 211 210 203 205 209 211 205 204 215 234 233 234 233 222 200 183 195 208 221 236 238 219 198 186 181 191 209 193
3 13 11 342 327 332 343 275 260 257 256 233 223 224 223 224 215 195 207 204 193 192 208 225 252 256 247 229 226 215 207 186 197 223 231 230 209 196 192 188 197 182 146
349 352 356 342 333 329 301 252 273 283 285 248 243 234 229 234 208 193 204 209 195 197 217 225 242 259 257 247 237 227 219 211 210 229 228 230 206 192 194 194 178 156 154
332 338 350 346 329 323 314 279 285 299 86 296 289 255 216 252 231 205 199 202 207 205 211 218 235 258 259 246 241 230 223 209 201 210 192 177 156 155 168 159 161 165 172
310 320 322 317 312 321 326 319 314 338 319 288 288 288 247 221 221 225 227 220 224 216 210 215 212 214 237 243 225 200 201 200 199 152 93 79 120 139 138 133 157 173 169
304 312 311 309 310 319 327 324 319 290 195 270 288 285 265 239 219 211 275 274 250 256 239 222 208 221 227 220 212 203 193 181 160 134 148 172 184 186 192 188 198 203 203